Location: ?????????
(41.2393°N, 22.9479°E)
Time: 22:54:54
(UTC+00:00)

Cosmos 968 Rocket - Pass Details

Date: 17 November 2025
Orbit: 735 x 766 km, 74.0° (Epoch: 09 December)

Event Time Altitude Azimuth Distance (km) Brightness Sun altitude
Rises 17:14:49 0° 187° (S) 3,167 6.8 -23.9°
Reaches altitude 10° 17:17:11 10° 183° (S) 2,252 6.0 -24.3°
Enters shadow 17:20:37 41° 161° (SSE) 1,085 4.1 -25.0°
